User: anonymous   Login
Location: Unspecified
(0.0000°N, 0.0000°E)
Time: 00:05:19
(UTC+00:00)
Language:

ONEWEB-0435 - Orbit

View from above orbital plane
View from above orbital plane
View from above satellite
View from above satellite

Ground track
Ground track

The orbit is defined by the following mean orbital elements,

1 51632U          26145.13562295 +.00000000 +00000-0 -80179-3 0 00000
2 51632  87.8854  40.8677 0001726  72.2251 287.9064 13.10376418    06
Epoch (UTC): 25 May 2026 03:15:17
Eccentricity: 0.0001726
inclination: 87.8854°
perigee height: 1220 km
apogee height: 1223 km
right ascension of ascending node: 40.8677°
argument of perigee: 72.2251°
revolutions per day: 13.10376418
mean anomaly at epoch: 287.9064°

The dashed part of the orbit path shows where the satellite is in the earth's shadow,  

DLR